Temperature
21 20 19 20 26 29 29 29 29 29 28 26 26 26 26 25 24 23 21 20 19 19 19 19 19 19 19 19 19 19 19 19 18 18 18 18 18 18 18 18 19 19 18 18 18 19 19 19 19
20 19 20 24 30 30 29 29 29 28 27 26 26 26 25 24 22 21 20 19 19 19 19 18 19 19 19 19 19 19 19 18 18 18 18 18 18 18 18 18 19 18 18 18 18 19 18 18 18
20 20 24 29 30 30 29 29 29 28 27 26 26 25 24 23 21 21 20 19 19 19 19 18 19 18 18 19 19 19 19 18 18 18 18 18 18 18 18 18 18 18 18 18 18 18 18 18 18
21 23 26 30 30 30 30 30 29 28 27 26 26 25 23 21 21 20 19 19 20 19 19 18 19 18 18 18 18 18 19 18 18 18 18 18 18 18 18 18 18 18 18 18 18 18 18 18 18
22 27 31 31 31 30 30 30 29 29 28 27 26 25 23 20 20 20 19 19 20 19 19 18 18 18 18 18 18 18 18 18 18 18 18 18 18 18 18 18 18 18 18 18 18 18 18 18 18
27 30 32 31 31 31 31 29 29 29 27 26 26 25 23 20 20 20 20 19 19 19 19 18 18 18 18 18 18 18 18 18 18 18 18 18 18 18 18 18 18 18 18 18 18 18 18 18 18
29 31 31 31 31 31 30 29 29 29 28 27 26 26 23 21 20 20 20 19 19 19 19 19 18 18 18 18 18 19 19 19 18 18 18 18 18 18 18 18 18 18 18 18 18 18 18 18 18
28 32 32 32 31 31 30 29 29 29 28 26 25 26 24 21 20 20 20 20 19 19 19 18 18 18 18 18 18 18 18 18 18 18 18 18 18 18 18 18 18 18 18 18 18 18 18 18 18
28 32 32 32 31 31 31 30 28 27 27 26 25 25 23 21 21 20 20 20 19 19 19 19 19 18 18 18 18 18 18 18 18 18 18 18 18 18 18 17 18 18 18 18 18 18 18 18 18
30 32 32 32 32 32 31 30 29 28 28 26 25 23 22 21 21 21 21 20 20 19 19 18 19 19 18 18 18 18 18 18 18 18 18 18 18 18 17 18 18 18 18 18 18 18 18 18 17
31 32 32 32 32 31 31 30 29 29 29 27 25 23 22 22 22 22 21 21 20 19 19 19 18 18 18 18 18 18 18 18 18 18 18 18 17 18 17 18 17 18 17 17 17 17 17 17 17
32 32 32 32 31 31 31 30 30 29 29 27 25 24 23 22 22 22 21 21 20 19 19 19 18 18 18 18 18 18 18 18 18 18 18 18 18 18 18 18 18 17 17 17 17 17 17 17 17
32 32 32 32 31 31 30 30 30 29 27 26 25 24 23 23 22 22 21 20 20 19 19 19 19 19 19 18 18 18 18 18 18 18 18 18 18 18 18 18 18 18 18 17 17 17 17 17 17
32 32 32 32 31 31 31 30 29 28 26 25 25 24 24 23 22 22 21 20 20 19 19 19 19 19 19 19 18 18 18 18 18 18 18 18 18 18 18 18 18 17 17 17 17 17 17 17 17
31 32 33 32 32 31 31 31 30 28 27 26 25 24 24 23 23 22 21 21 20 19 19 19 19 19 19 18 18 18 18 18 18 18 18 18 18 18 18 18 18 18 17 17 17 17 17 18 18
33 33 32 32 32 31 32 31 30 28 27 26 26 25 24 23 23 22 21 21 20 20 19 19 19 19 19 19 18 18 18 18 18 18 18 18 18 18 18 18 18 18 18 17 18 18 18 18 18
32 32 32 32 32 32 32 31 30 28 28 27 26 25 24 23 23 22 21 21 20 20 20 19 19 19 19 19 19 18 18 18 18 18 18 18 18 18 18 18 18 18 18 18 18 18 18 18 18
32 32 32 32 32 32 32 32 31 28 28 28 26 26 25 24 23 22 21 21 20 20 20 20 19 19 19 19 19 18 18 18 18 18 18 18 18 18 18 18 18 18 18 18 18 18 18 18 18
32 32 32 32 32 32 31 31 31 29 28 28 27 26 25 25 24 23 22 21 21 20 20 20 20 20 19 19 19 19 18 18 18 18 18 18 18 18 18 18 18 18 18 18 18 18 18 18 18
32 31 32 32 32 31 31 31 31 30 29 28 27 26 26 25 24 23 22 21 21 21 20 20 20 20 20 19 19 19 19 18 18 18 18 18 18 18 18 18 18 18 18 18 18 18 18 18 18
31 32 32 31 31 31 31 31 31 30 29 28 27 27 26 26 25 23 22 22 21 21 21 21 20 20 20 20 19 19 19 19 18 18 18 18 18 18 18 18 18 18 18 18 18 18 18 18 18
31 32 31 31 31 31 31 31 31 31 30 29 28 27 27 26 25 24 23 22 22 21 21 21 21 20 20 20 19 19 19 19 19 19 18 18 18 18 18 18 18 18 18 18 18 18 18 18 18
31 32 31 31 31 31 31 31 31 31 30 30 29 28 27 26 25 24 23 22 22 21 21 21 21 20 20 20 20 20 19 19 19 19 18 18 18 18 18 18 18 18 18 18 18 18 18 18 18
31 31 31 31 31 30 31 31 31 32 31 31 30 28 27 26 25 24 23 22 22 21 21 21 21 21 20 20 20 20 19 19 19 19 19 18 18 18 18 18 18 18 18 18 18 18 18 18 18
31 30 30 30 30 30 31 30 31 31 31 31 30 29 27 26 25 25 24 23 22 21 21 21 21 21 21 20 20 20 19 19 19 19 19 19 18 18 18 18 18 18 18 18 18 18 18 18 18
30 31 30 29 30 31 30 30 31 31 30 29 29 28 27 26 26 25 24 23 22 21 21 21 21 21 21 20 20 20 20 19 19 19 19 19 19 19 18 18 19 18 18 18 18 18 18 18 18
30 30 32 31 30 30 31 31 31 30 30 29 29 28 27 26 26 25 24 23 22 22 21 21 21 21 20 20 20 20 20 20 19 19 19 19 19 19 18 19 19 18 18 18 18 18 18 18 18
30 31 31 30 29 29 30 30 30 30 29 29 29 28 26 26 26 25 24 23 22 22 21 21 20 20 20 20 20 20 20 20 20 19 19 19 19 19 18 18 18 18 18 18 18 18 18 18 18
29 29 29 30 30 29 29 30 31 30 29 29 28 27 26 25 25 24 24 23 22 22 21 21 20 20 20 20 20 20 20 20 19 19 19 19 19 19 19 18 18 18 18 18 18 18 18 18 18
29 29 29 29 28 29 29 30 30 29 29 28 27 26 25 24 24 24 23 23 22 22 21 21 20 20 20 20 20 20 19 19 19 19 19 19 19 19 18 18 18 18 18 18 18 18 18 17 17
Wind_Speed
14 10 6 4 4 4 13 10 9 8 7 8 8 6 8 8 7 5 4 5 5 5 8 11 11 11 11 12 13 15 16 17 18 19 19 19 19 19 20 20 19 19 19 19 18 18 17 17 16
10 6 5 4 2 10 13 10 11 10 7 5 6 6 8 8 7 5 4 5 5 6 9 11 12 11 11 12 13 14 16 18 18 19 19 19 19 19 19 19 19 18 18 18 18 17 17 17 16
7 5 4 1 8 11 11 10 9 8 5 4 5 6 6 6 6 4 5 6 6 7 9 12 12 11 11 12 13 14 16 17 18 18 19 19 19 19 19 19 19 18 18 17 17 17 17 16 15
4 4 4 3 12 12 9 8 6 6 6 5 5 7 6 6 4 6 7 6 7 8 9 13 12 10 10 12 13 14 16 17 17 17 18 19 19 20 19 19 19 18 17 17 16 16 16 16 15
5 4 1 8 12 10 8 7 5 5 6 6 6 8 8 7 8 9 7 7 8 8 9 13 13 11 10 12 12 14 15 17 16 16 17 18 19 19 19 18 18 17 17 16 15 15 15 14 14
4 2 5 10 11 8 7 6 5 7 7 6 6 8 7 7 8 8 8 7 8 8 9 12 12 11 11 11 12 13 14 15 15 16 17 18 18 18 18 18 17 17 16 15 15 15 14 14 13
4 3 7 9 9 8 6 5 5 6 6 6 5 6 7 8 8 8 8 8 7 8 8 9 11 11 11 11 12 13 14 14 14 15 16 18 18 17 18 17 16 16 16 15 14 14 13 13 12
4 2 6 8 8 9 6 4 5 5 7 6 3 5 8 10 9 8 8 8 8 7 7 7 9 10 10 11 11 11 12 12 13 14 16 17 18 17 17 17 16 16 15 14 13 13 12 11 10
4 1 7 9 8 6 5 4 5 4 7 6 4 6 11 13 11 9 8 8 8 7 6 6 8 8 9 9 11 11 12 11 12 13 15 14 13 14 14 15 15 15 15 14 13 12 12 11 10
2 4 8 7 6 5 3 3 5 5 6 7 9 11 13 12 10 9 9 8 8 7 6 6 6 7 8 8 9 8 9 10 9 10 11 10 10 9 11 14 14 14 13 13 12 12 12 10 9
1 3 5 5 5 4 3 4 4 4 4 6 10 14 14 12 10 9 8 8 8 7 6 6 5 6 6 6 6 6 6 7 8 9 9 8 8 8 8 9 10 11 12 11 12 11 8 7 6
1 2 3 3 3 2 3 4 4 3 5 6 10 14 14 12 10 9 8 8 7 7 6 5 5 5 5 5 5 5 5 5 6 8 8 7 5 5 6 5 7 7 8 7 7 5 6 5 5
2 2 3 2 1 2 3 3 3 4 6 9 12 13 13 12 10 9 8 8 7 7 6 6 5 5 5 5 4 5 5 5 6 6 7 7 6 5 6 5 5 6 7 7 6 5 5 4 5
2 3 2 0 2 3 3 4 3 5 8 11 12 12 12 11 10 9 9 8 7 7 6 6 6 6 5 5 4 4 5 6 6 6 7 6 6 5 5 5 5 5 6 6 5 5 4 4 3
4 4 2 2 2 2 3 3 3 7 10 11 12 12 12 11 10 10 9 9 8 7 7 7 7 6 6 5 5 4 5 7 5 6 6 6 6 6 6 5 5 5 6 6 5 5 4 4 4
6 7 5 3 2 2 5 0 5 9 11 11 11 11 11 11 11 10 10 9 8 8 7 7 6 7 7 5 4 4 5 6 5 6 6 6 6 7 6 5 5 5 6 5 5 5 4 3 3
9 7 4 2 2 3 5 2 4 9 10 10 11 11 11 11 11 10 10 10 9 9 8 8 7 7 7 6 5 4 4 4 5 5 5 6 7 7 6 5 5 6 5 5 5 4 4 4 3
7 6 5 4 1 3 5 3 4 8 9 10 11 11 11 12 12 12 11 11 10 9 9 9 8 8 7 7 5 4 5 5 5 5 6 6 7 8 7 6 6 6 5 5 4 4 4 3 3
8 8 7 4 1 4 5 4 3 7 9 9 10 11 11 11 11 11 12 11 11 10 10 9 9 9 8 7 7 6 6 6 5 5 7 7 7 8 7 6 6 6 5 5 6 5 5 5 4
10 10 9 5 2 4 5 5 3 6 9 9 10 11 12 11 11 11 12 12 12 12 11 11 10 10 10 8 6 5 5 5 5 5 6 7 8 8 8 6 6 6 5 6 6 6 4 4 4
12 11 10 7 5 7 7 7 5 6 7 9 10 10 11 12 13 13 13 13 13 12 12 11 11 11 10 9 7 6 6 5 6 6 6 7 8 8 7 7 6 6 6 6 6 6 6 5 5
12 9 9 9 10 7 7 8 5 5 7 8 10 10 11 12 12 12 13 13 13 13 12 12 11 11 10 10 9 10 8 8 7 6 6 7 8 8 8 8 7 7 6 6 7 7 6 6 5
9 6 8 10 11 11 9 9 5 6 6 7 9 10 11 11 12 12 13 13 12 12 12 12 11 11 11 10 10 10 9 7 6 6 6 6 7 8 8 8 7 7 6 6 6 5 6 6 6
7 7 8 10 11 13 11 11 8 5 5 5 5 7 9 9 11 12 12 12 11 11 11 11 11 11 11 12 11 10 10 8 8 8 7 7 7 7 8 9 8 8 7 7 7 6 7 6 6
11 11 10 11 12 11 7 9 7 3 3 3 3 4 6 8 9 11 12 12 12 12 12 12 12 11 11 12 11 11 10 10 10 9 8 8 7 7 8 8 8 8 7 7 7 7 7 7 7
13 14 12 11 11 9 8 9 5 2 2 2 2 2 4 6 8 10 11 12 12 12 12 12 12 12 12 11 11 10 10 9 8 9 8 7 6 6 6 8 8 8 8 8 7 7 8 7 8
11 13 13 13 13 12 9 7 6 4 4 3 2 2 3 4 6 9 10 11 11 12 12 12 12 12 11 11 10 10 10 9 8 8 8 7 7 6 7 7 8 8 8 8 7 7 7 7 8
10 9 10 12 12 13 12 12 9 6 5 4 2 2 2 3 5 7 8 9 10 10 11 11 11 11 11 11 10 9 9 9 8 7 8 7 7 6 7 7 7 8 8 8 8 7 7 7 7
9 10 10 10 12 13 12 8 2 3 4 3 3 2 2 3 4 6 7 8 8 9 10 10 10 10 10 10 9 9 9 9 9 8 8 8 7 7 7 7 7 7 8 7 7 8 8 8 7
10 11 12 12 12 12 13 8 2 1 1 1 1 2 2 2 3 5 5 6 7 8 8 9 9 9 9 9 9 9 8 8 9 9 8 8 8 8 8 7 7 8 8 7 8 8 8 8 8
Wind_Direction
170 175 196 230 235 76 57 53 50 57 58 54 53 52 53 42 30 59 57 57 63 80 105 117 110 111 115 120 126 131 135 137 140 139 138 138 138 139 136 134 131 130 130 131 132 134 132 130 128
169 178 221 245 2 62 60 50 54 54 73 78 63 61 65 59 53 76 74 69 84 85 96 105 108 111 115 117 121 128 133 136 139 141 141 139 141 142 139 135 133 133 133 132 131 133 133 131 129
174 217 260 297 46 48 51 50 62 73 75 70 72 57 55 63 67 72 80 93 94 89 95 101 107 111 115 117 120 127 133 136 138 140 141 141 143 141 138 137 135 136 135 133 132 132 133 132 131
200 230 237 44 57 53 50 54 70 82 74 66 84 82 76 59 70 87 96 100 96 93 99 103 105 107 113 117 120 127 135 137 138 139 140 140 140 139 138 136 135 135 134 133 131 129 128 130 131
242 263 100 67 60 55 57 58 64 61 69 75 84 93 88 78 92 101 103 101 98 98 101 103 104 103 109 115 118 123 130 134 137 139 141 140 139 140 138 137 136 134 133 134 133 130 130 130 131
254 264 49 59 61 60 64 71 72 69 86 90 94 97 91 109 107 105 103 98 95 99 103 106 109 103 103 112 116 120 125 132 137 139 141 141 142 140 140 139 139 137 136 135 134 130 129 129 129
306 10 50 54 59 65 61 65 64 77 86 88 99 99 113 121 113 114 108 102 95 95 99 104 112 116 113 110 112 118 125 133 136 138 141 142 141 142 141 142 143 142 140 138 136 133 131 131 132
298 322 59 57 49 59 75 82 70 69 86 103 110 104 125 130 130 124 116 109 99 93 96 105 109 113 118 119 118 117 121 130 134 137 141 143 145 144 146 146 144 145 143 141 140 136 133 133 137
272 349 51 46 40 54 82 97 94 94 110 106 91 93 121 133 138 133 124 114 112 109 104 104 109 115 118 118 122 126 128 130 139 140 142 146 146 145 150 144 146 147 146 145 143 142 142 145 147
274 33 45 31 28 47 82 94 121 134 124 118 114 114 128 141 146 141 134 129 124 120 114 108 112 119 124 124 125 129 131 134 136 135 141 143 140 144 144 142 151 150 150 151 151 152 159 171 155
310 12 19 21 29 51 93 111 135 137 118 129 140 143 147 151 153 147 140 134 127 127 122 121 117 120 127 129 129 126 126 131 133 134 138 138 144 148 146 149 155 157 159 157 155 166 169 163 150
272 341 346 1 27 55 91 114 120 91 79 120 141 148 154 158 158 155 148 141 135 132 131 125 128 129 127 126 127 135 134 137 138 138 146 144 146 149 140 145 150 155 153 152 160 159 154 154 160
248 322 359 7 43 99 123 119 109 108 108 129 141 152 158 161 161 159 155 150 148 146 143 137 132 131 132 133 142 140 140 140 138 138 143 150 151 148 143 145 150 156 150 156 161 155 154 165 179
309 293 311 82 109 133 140 133 141 128 137 144 153 161 165 167 166 163 166 167 166 164 159 153 153 148 147 147 147 143 145 146 144 146 147 153 150 145 149 152 153 154 155 154 159 160 166 181 182
259 253 217 161 155 157 185 159 155 149 154 158 163 167 171 174 174 175 176 177 175 174 172 166 166 160 162 159 154 146 147 149 152 150 152 157 158 153 159 155 160 156 155 158 169 170 178 187 190
239 242 233 157 195 203 244 154 140 162 168 168 170 173 177 181 184 182 183 183 180 178 176 178 176 168 172 170 163 154 151 148 157 162 161 165 165 167 171 166 167 163 170 175 174 185 185 190 200
228 242 252 172 199 236 246 291 134 169 177 176 178 180 182 183 190 189 189 188 186 185 181 181 183 178 176 170 169 164 159 164 169 172 173 169 176 179 183 176 169 178 181 185 191 180 194 195 203
238 246 246 254 196 255 255 267 161 177 189 187 185 187 190 191 191 190 193 191 189 188 188 186 185 182 180 177 175 178 174 177 181 182 180 180 186 186 189 183 182 192 188 191 195 186 201 210 215
262 258 255 261 257 268 267 270 217 188 196 194 194 194 196 197 191 188 192 193 190 190 191 192 191 183 185 185 186 184 182 183 184 187 184 190 196 190 195 194 179 195 196 201 198 198 198 211 210
244 247 250 247 229 262 270 269 243 199 205 205 201 199 199 195 191 191 194 194 194 192 194 193 193 189 190 187 190 192 187 190 188 189 183 197 198 195 192 195 194 194 195 202 206 209 219 219 210
238 244 250 254 250 238 255 249 219 198 205 207 209 206 203 200 195 193 196 198 196 196 197 197 195 192 193 187 188 186 184 196 189 192 191 196 197 199 203 198 203 199 206 201 208 214 221 225 222
237 239 249 249 250 248 245 266 223 202 200 207 209 207 206 201 197 195 195 196 198 197 196 197 194 194 193 192 199 199 198 200 196 195 189 190 196 201 202 204 204 209 213 204 214 213 222 228 230
247 244 242 247 252 259 243 260 245 198 222 218 208 206 207 202 197 195 195 194 195 193 191 191 191 194 195 199 201 205 208 205 199 196 188 197 198 203 207 207 208 211 217 215 222 217 228 229 237
224 228 234 242 248 248 246 255 252 226 236 236 203 199 203 201 199 195 192 190 192 190 189 187 187 192 196 199 203 204 206 206 203 200 198 203 204 205 208 210 211 215 221 217 221 223 225 237 242
216 229 232 231 231 241 229 247 255 255 256 262 238 203 197 199 196 192 189 188 191 191 190 189 189 194 195 197 202 203 207 207 208 209 207 212 212 208 203 211 212 218 220 222 223 223 230 227 231
220 232 242 250 247 239 215 241 242 228 227 232 238 209 193 190 189 187 187 187 190 192 191 190 192 195 195 197 199 203 207 211 213 212 218 216 221 220 206 209 216 221 221 223 221 229 227 225 226
223 231 248 259 263 263 247 240 233 218 216 215 195 163 163 173 178 178 179 183 188 192 192 192 192 195 196 198 197 200 205 214 216 213 217 220 220 220 211 213 216 219 221 225 225 232 231 225 226
243 238 238 245 251 254 247 243 243 221 232 228 214 184 150 158 171 171 176 181 185 189 190 192 194 196 198 198 201 200 203 206 212 217 217 220 219 219 219 218 216 217 219 221 225 230 228 229 231
215 224 235 246 254 258 257 248 229 220 228 234 212 164 160 166 169 172 173 178 182 184 186 191 194 195 198 200 200 202 200 201 205 209 215 215 216 214 217 221 222 223 222 222 221 229 227 229 231
237 234 233 242 245 252 266 260 137 176 222 228 173 139 142 160 166 169 166 171 179 185 186 190 195 197 198 197 198 200 200 200 203 207 210 212 213 216 215 217 219 223 223 223 222 227 229 231 232
Height
1490 1490 1491 1493 1485 1477 1480 1479 1476 1478 1482 1486 1487 1487 1488 1491 1493 1501 1502 1498 1497 1496 1494 1494 1494 1494 1494 1495 1496 1498 1500 1503 1506 1509 1512 1515 1517 1520 1523 1526 1529 1531 1534 1536 1538 1541 1543 1545 1547
1492 1492 1494 1490 1476 1481 1484 1478 1480 1483 1487 1489 1489 1490 1491 1495 1498 1501 1501 1500 1499 1498 1497 1497 1496 1497 1497 1498 1498 1500 1502 1504 1507 1510 1514 1516 1519 1522 1525 1528 1530 1533 1535 1538 1540 1542 1544 1546 1549
1493 1493 1493 1480 1476 1482 1485 1480 1482 1486 1489 1489 1491 1493 1495 1499 1501 1502 1502 1502 1501 1501 1500 1499 1499 1499 1500 1500 1501 1502 1504 1506 1509 1512 1515 1518 1521 1524 1527 1529 1532 1535 1538 1540 1542 1544 1545 1548 1550
1494 1494 1489 1479 1480 1480 1480 1481 1484 1486 1489 1491 1491 1495 1500 1503 1504 1504 1503 1503 1503 1503 1503 1502 1501 1501 1502 1502 1503 1504 1506 1508 1511 1515 1518 1521 1523 1526 1529 1531 1534 1537 1539 1541 1544 1546 1547 1549 1551
1495 1490 1479 1477 1479 1480 1480 1483 1485 1485 1489 1492 1493 1496 1502 1505 1505 1505 1505 1505 1505 1505 1505 1505 1504 1504 1504 1505 1505 1507 1509 1511 1514 1517 1520 1523 1526 1528 1531 1534 1536 1539 1541 1544 1546 1548 1550 1552 1553
1493 1483 1478 1482 1481 1480 1481 1485 1486 1487 1491 1494 1495 1497 1503 1507 1507 1507 1507 1507 1507 1507 1507 1507 1506 1506 1507 1507 1508 1509 1511 1513 1516 1519 1522 1525 1527 1530 1533 1535 1538 1541 1543 1545 1547 1549 1552 1554 1555
1491 1480 1480 1480 1481 1481 1483 1486 1486 1487 1490 1495 1497 1498 1504 1507 1508 1509 1509 1509 1509 1509 1509 1510 1510 1509 1509 1510 1511 1513 1514 1516 1519 1521 1524 1526 1529 1532 1535 1537 1540 1543 1545 1547 1549 1551 1553 1555 1557
1491 1482 1477 1478 1480 1482 1484 1487 1489 1489 1493 1498 1499 1498 1503 1508 1509 1510 1510 1511 1511 1511 1511 1511 1512 1512 1513 1513 1514 1515 1517 1518 1520 1523 1526 1528 1531 1534 1536 1539 1542 1544 1546 1548 1550 1553 1555 1556 1558
1491 1482 1480 1479 1481 1482 1484 1487 1491 1493 1495 1498 1500 1501 1504 1508 1510 1511 1512 1513 1512 1513 1513 1514 1514 1515 1516 1517 1517 1518 1519 1520 1522 1525 1527 1530 1533 1536 1538 1541 1543 1545 1548 1550 1552 1554 1556 1558 1560
1488 1481 1481 1480 1480 1481 1484 1487 1490 1492 1494 1498 1501 1504 1506 1508 1510 1511 1512 1513 1514 1515 1515 1515 1516 1517 1518 1519 1520 1521 1522 1523 1525 1527 1529 1532 1534 1537 1540 1542 1544 1546 1549 1551 1553 1555 1557 1559 1562
1486 1483 1480 1481 1482 1483 1484 1487 1489 1489 1491 1496 1500 1504 1507 1509 1510 1512 1513 1515 1516 1516 1517 1518 1518 1518 1519 1521 1522 1523 1524 1525 1527 1528 1530 1533 1536 1538 1541 1543 1545 1547 1549 1552 1554 1556 1559 1561 1562
1485 1483 1483 1483 1484 1484 1485 1487 1489 1490 1493 1497 1500 1504 1506 1509 1511 1512 1514 1516 1517 1518 1518 1519 1519 1519 1520 1522 1523 1525 1526 1527 1529 1530 1532 1534 1537 1539 1542 1543 1546 1548 1550 1552 1554 1556 1559 1560 1562
1484 1483 1483 1483 1484 1484 1486 1487 1490 1493 1496 1498 1501 1504 1507 1509 1511 1513 1515 1517 1518 1519 1519 1520 1520 1520 1521 1522 1524 1526 1527 1528 1530 1532 1534 1536 1538 1540 1542 1544 1546 1548 1550 1552 1554 1556 1558 1560 1562
1484 1483 1483 1483 1483 1485 1486 1488 1490 1494 1497 1499 1502 1505 1507 1509 1511 1513 1515 1517 1518 1519 1520 1520 1521 1521 1522 1524 1525 1525 1526 1528 1532 1533 1535 1537 1539 1540 1542 1544 1546 1549 1551 1552 1554 1556 1558 1560 1561
1485 1482 1480 1481 1482 1484 1485 1486 1488 1493 1496 1499 1501 1504 1507 1509 1511 1513 1515 1516 1518 1519 1520 1521 1522 1523 1524 1525 1526 1526 1527 1529 1532 1534 1535 1537 1539 1540 1543 1545 1547 1549 1551 1552 1554 1556 1558 1559 1561
1481 1479 1481 1480 1481 1483 1484 1486 1487 1492 1495 1497 1500 1503 1506 1509 1511 1513 1514 1516 1517 1519 1520 1521 1523 1523 1524 1525 1527 1528 1530 1531 1533 1535 1536 1537 1539 1541 1542 1544 1547 1549 1551 1552 1554 1556 1557 1559 1560
1478 1481 1480 1480 1480 1480 1481 1483 1485 1490 1493 1495 1498 1501 1504 1507 1510 1512 1513 1515 1516 1518 1519 1520 1522 1523 1525 1526 1527 1529 1530 1532 1534 1535 1537 1538 1539 1541 1543 1544 1546 1548 1550 1552 1554 1556 1557 1558 1559
1481 1479 1481 1480 1478 1479 1479 1479 1482 1488 1490 1493 1496 1499 1502 1504 1507 1509 1512 1513 1515 1516 1518 1520 1521 1523 1525 1526 1527 1529 1530 1532 1534 1535 1536 1538 1539 1541 1543 1544 1546 1548 1550 1552 1553 1554 1555 1556 1558
1476 1479 1480 1479 1477 1479 1479 1479 1479 1484 1487 1490 1493 1496 1499 1501 1505 1507 1510 1512 1513 1515 1516 1518 1520 1521 1523 1525 1527 1529 1531 1532 1534 1535 1536 1537 1539 1540 1542 1544 1545 1547 1549 1550 1552 1553 1554 1555 1556
1477 1480 1479 1477 1477 1479 1478 1478 1476 1481 1484 1487 1489 1492 1495 1499 1502 1505 1507 1509 1511 1512 1514 1516 1518 1520 1522 1524 1526 1528 1530 1532 1533 1534 1535 1537 1538 1540 1542 1543 1545 1546 1548 1549 1550 1551 1553 1554 1555
1476 1477 1477 1478 1477 1476 1478 1479 1476 1477 1481 1484 1487 1489 1492 1495 1498 1501 1503 1506 1508 1510 1512 1514 1516 1518 1520 1523 1525 1527 1528 1530 1532 1533 1534 1536 1537 1539 1541 1542 1544 1545 1546 1547 1548 1549 1551 1552 1553
1477 1471 1474 1477 1480 1477 1478 1484 1474 1471 1476 1479 1482 1485 1487 1490 1494 1497 1500 1502 1504 1507 1509 1511 1514 1516 1518 1521 1523 1525 1526 1528 1530 1532 1533 1534 1536 1537 1539 1540 1542 1543 1545 1545 1546 1548 1549 1550 1551
1471 1470 1472 1474 1476 1478 1475 1481 1473 1468 1472 1473 1476 1480 1483 1486 1490 1493 1496 1499 1501 1504 1507 1509 1511 1513 1516 1518 1520 1522 1525 1527 1528 1530 1531 1533 1534 1535 1537 1538 1540 1541 1542 1543 1544 1545 1546 1547 1548
1470 1473 1474 1473 1473 1486 1476 1479 1476 1465 1467 1467 1471 1477 1481 1484 1487 1490 1493 1496 1499 1502 1504 1506 1508 1510 1512 1515 1517 1519 1522 1524 1526 1527 1529 1530 1532 1533 1535 1536 1537 1538 1540 1541 1541 1542 1543 1544 1545
1470 1477 1485 1487 1485 1481 1469 1476 1471 1462 1463 1466 1470 1474 1478 1481 1483 1486 1489 1492 1496 1499 1501 1503 1505 1507 1509 1512 1514 1516 1518 1520 1522 1524 1526 1528 1530 1531 1532 1534 1534 1536 1537 1538 1539 1540 1541 1541 1542
1467 1469 1483 1490 1484 1473 1471 1474 1464 1461 1465 1468 1470 1472 1475 1477 1479 1482 1486 1489 1493 1496 1498 1500 1502 1504 1506 1508 1511 1513 1515 1518 1520 1521 1523 1525 1527 1528 1529 1530 1531 1533 1534 1535 1536 1537 1537 1537 1538
1466 1466 1460 1468 1471 1476 1468 1464 1461 1461 1464 1466 1469 1471 1473 1475 1477 1480 1483 1487 1490 1492 1495 1497 1499 1501 1503 1505 1507 1509 1512 1514 1517 1518 1520 1522 1523 1525 1526 1527 1528 1529 1530 1531 1532 1533 1534 1534 1535
1461 1460 1464 1469 1483 1485 1474 1468 1464 1462 1462 1463 1466 1469 1472 1474 1476 1479 1481 1484 1487 1490 1492 1494 1496 1498 1500 1502 1504 1506 1508 1511 1513 1515 1517 1518 1520 1521 1523 1524 1525 1526 1527 1528 1529 1529 1530 1531 1531
1464 1465 1464 1464 1466 1477 1479 1467 1451 1457 1460 1462 1464 1468 1471 1473 1475 1477 1480 1482 1485 1487 1489 1491 1493 1495 1497 1499 1501 1503 1505 1507 1509 1511 1513 1515 1516 1517 1519 1520 1521 1522 1523 1524 1525 1526 1527 1527 1528
1458 1460 1462 1471 1473 1469 1470 1465 1452 1456 1459 1462 1465 1469 1471 1473 1474 1476 1478 1480 1483 1485 1487 1488 1490 1492 1494 1496 1498 1500 1502 1504 1506 1507 1509 1511 1512 1514 1515 1516 1518 1519 1520 1520 1521 1522 1523 1523 1523